| time (UTC) | temp F | wind direction | speed MPH | gust MPH | rain 1hr in | rain 24hr in | rain mn in | humidity % | barometer mb |
| 20260504184830 | 54 | 349 | 2.0 | 12.0 | 0.00 | 0.01 | 0.01 | 29 | 1011.7 |
| 20260504184330 | 54 | 25 | 5.0 | 12.0 | 0.00 | 0.01 | 0.01 | 28 | 1011.8 |
| 20260504183830 | 55 | 12 | 3.0 | 12.0 | 0.00 | 0.01 | 0.01 | 28 | 1011.9 |
| 20260504183330 | 55 | 32 | 5.0 | 12.0 | 0.00 | 0.01 | 0.01 | 27 | 1011.8 |
| 20260504182829 | 54 | 335 | 2.0 | 12.0 | 0.00 | 0.01 | 0.01 | 31 | 1011.8 |
| 20260504182329 | 54 | 334 | 1.0 | 12.0 | 0.00 | 0.01 | 0.01 | 30 | 1011.8 |
| 20260504181830 | 53 | 15 | 5.0 | 12.0 | 0.00 | 0.01 | 0.01 | 30 | 1011.7 |
| 20260504181329 | 53 | 11 | 2.0 | 12.0 | 0.00 | 0.01 | 0.01 | 32 | 1011.8 |
| 20260504180830 | 53 | 24 | 5.0 | 12.0 | 0.00 | 0.01 | 0.01 | 31 | 1011.9 |
| 20260504180330 | 53 | 19 | 3.0 | 12.0 | 0.00 | 0.01 | 0.01 | 32 | 1011.8 |
| 20260504175830 | 52 | 358 | 5.0 | 12.0 | 0.00 | 0.01 | 0.01 | 33 | 1011.8 |
| 20260504175329 | 52 | 8 | 2.0 | 12.0 | 0.00 | 0.01 | 0.01 | 35 | 1011.8 |
| 20260504174830 | 51 | 44 | 1.0 | 12.0 | 0.00 | 0.01 | 0.01 | 35 | 1011.8 |
| 20260504174330 | 51 | 346 | 3.0 | 12.0 | 0.00 | 0.01 | 0.01 | 38 | 1011.8 |
| 20260504173833 | 51 | 350 | 3.0 | 12.0 | 0.00 | 0.01 | 0.01 | 37 | 1011.8 |
| 20260504173333 | 51 | 333 | 3.0 | 12.0 | 0.00 | 0.01 | 0.01 | 38 | 1011.9 |
| 20260504172835 | 51 | 18 | 1.0 | 12.0 | 0.00 | 0.01 | 0.01 | 41 | 1011.8 |
| 20260504172334 | 50 | 32 | 2.0 | 12.0 | 0.00 | 0.01 | 0.01 | 41 | 1011.8 |
| 20260504171835 | 51 | 28 | 3.0 | 12.0 | 0.00 | 0.01 | 0.01 | 40 | 1011.8 |
| 20260504171335 | 50 | 15 | 1.0 | 12.0 | 0.00 | 0.01 | 0.01 | 40 | 1011.8 |
| 20260504170834 | 51 | 2 | 2.0 | 12.0 | 0.00 | 0.01 | 0.01 | 40 | 1011.8 |
| 20260504170333 | 51 | 1 | 3.0 | 12.0 | 0.00 | 0.01 | 0.01 | 40 | 1011.8 |
| 20260504160335 | 45 | 11 | 5.0 | 12.0 | 0.00 | 0.01 | 0.01 | 51 | 1011.9 |
| 20260504150834 | 43 | 9 | 0.0 | 12.0 | 0.00 | 0.01 | 0.01 | 56 | 1011.7 |
| 20260504150335 | 43 | 9 | 0.0 | 12.0 | 0.00 | 0.01 | 0.01 | 56 | 1011.7 |
| 20260504141334 | 42 | 9 | 1.0 | 12.0 | 0.00 | 0.01 | 0.01 | 53 | 1011.4 |
| 20260504140832 | 42 | 9 | 0.0 | 12.0 | 0.00 | 0.01 | 0.01 | 54 | 1011.3 |
| 20260504140333 | 42 | 9 | 0.0 | 12.0 | 0.00 | 0.01 | 0.01 | 54 | 1011.3 |
| 20260504130333 | 40 | 9 | 0.0 | 12.0 | 0.00 | 0.01 | 0.01 | 59 | 1010.8 |
| 20260504110333 | 42 | 9 | 0.0 | 12.0 | 0.00 | 0.01 | 0.01 | 64 | 1010.5 |
| 20260504100333 | 44 | 9 | 0.0 | 12.0 | 0.00 | 0.01 | 0.01 | 73 | 1009.6 |
| 20260504081834 | 46 | 9 | 0.0 | 12.0 | 0.00 | 0.01 | 0.01 | 70 | 1009.7 |
| 20260504081332 | 46 | 9 | 0.0 | 12.0 | 0.00 | 0.01 | 0.01 | 70 | 1009.7 |
| 20260504080831 | 46 | 9 | 0.0 | 12.0 | 0.01 | 0.01 | 0.01 | 70 | 1009.7 |
| 20260504080333 | 46 | 9 | 0.0 | 12.0 | 0.01 | 0.01 | 0.01 | 70 | 1009.8 |
| 20260504070332 | 47 | 7 | 2.0 | 12.0 | 0.00 | 0.00 | 0.00 | 66 | 1010.2 |
| 20260504050331 | 53 | 354 | 5.0 | 15.0 | 0.00 | 0.00 | 0.00 | 45 | 1008.8 |
| 20260504045831 | 53 | 32 | 1.0 | 15.0 | 0.00 | 0.00 | 0.00 | 44 | 1008.8 |
| 20260504045332 | 53 | 357 | 2.0 | 15.0 | 0.00 | 0.00 | 0.00 | 44 | 1008.7 |
| 20260504044657 | 53 | 0 | 2.0 | 15.0 | 0.00 | 0.00 | 0.00 | 44 | 1008.6 |
| 20260504044155 | 53 | 15 | 1.0 | 15.0 | 0.00 | 0.00 | 0.00 | 43 | 1008.6 |
| 20260504043657 | 53 | 22 | 2.0 | 15.0 | 0.00 | 0.00 | 0.00 | 43 | 1008.4 |
| 20260504043157 | 54 | 1 | 2.0 | 15.0 | 0.00 | 0.00 | 0.00 | 40 | 1008.3 |
| 20260504042657 | 54 | 1 | 2.0 | 15.0 | 0.00 | 0.00 | 0.00 | 40 | 1008.2 |
| 20260504042156 | 54 | 4 | 3.0 | 15.0 | 0.00 | 0.00 | 0.00 | 39 | 1008.2 |
| 20260504041657 | 54 | 11 | 3.0 | 15.0 | 0.00 | 0.00 | 0.00 | 38 | 1008.2 |
| 20260504041157 | 54 | 356 | 1.0 | 15.0 | 0.00 | 0.00 | 0.00 | 38 | 1008.2 |
| 20260504040656 | 54 | 23 | 2.0 | 15.0 | 0.00 | 0.00 | 0.00 | 38 | 1008.1 |
| 20260504040156 | 55 | 9 | 1.0 | 15.0 | 0.00 | 0.00 | 0.00 | 37 | 1008.0 |
| 20260504035656 | 55 | 356 | 3.0 | 15.0 | 0.00 | 0.00 | 0.00 | 37 | 1007.9 |
| 20260504035155 | 55 | 23 | 3.0 | 15.0 | 0.00 | 0.00 | 0.00 | 37 | 1007.7 |
| 20260504034655 | 55 | 5 | 3.0 | 15.0 | 0.00 | 0.00 | 0.00 | 37 | 1007.5 |
| 20260504034155 | 55 | 27 | 2.0 | 15.0 | 0.00 | 0.00 | 0.00 | 37 | 1007.4 |
| 20260504033655 | 55 | 8 | 3.0 | 15.0 | 0.00 | 0.00 | 0.00 | 36 | 1007.2 |
| 20260504033155 | 56 | 6 | 2.0 | 15.0 | 0.00 | 0.00 | 0.00 | 36 | 1007.0 |
| 20260504032656 | 56 | 4 | 5.0 | 15.0 | 0.00 | 0.00 | 0.00 | 36 | 1006.6 |
| 20260504032156 | 56 | 21 | 5.0 | 15.0 | 0.00 | 0.00 | 0.00 | 36 | 1006.5 |
| 20260504031656 | 57 | 23 | 5.0 | 15.0 | 0.00 | 0.00 | 0.00 | 36 | 1006.5 |
| 20260504031156 | 57 | 6 | 6.0 | 15.0 | 0.00 | 0.00 | 0.00 | 36 | 1006.2 |
| 20260504030656 | 57 | 21 | 1.0 | 15.0 | 0.00 | 0.00 | 0.00 | 36 | 1006.0 |
| 20260504030156 | 57 | 5 | 3.0 | 15.0 | 0.00 | 0.00 | 0.00 | 36 | 1005.9 |
| 20260504025656 | 57 | 20 | 3.0 | 15.0 | 0.00 | 0.00 | 0.00 | 35 | 1005.7 |
| 20260504025155 | 58 | 14 | 2.0 | 15.0 | 0.00 | 0.00 | 0.00 | 35 | 1005.6 |
| 20260504024655 | 58 | 16 | 2.0 | 15.0 | 0.00 | 0.00 | 0.00 | 35 | 1005.5 |
| 20260504024154 | 58 | 28 | 2.0 | 15.0 | 0.00 | 0.00 | 0.00 | 35 | 1005.5 |
| 20260504023656 | 58 | 33 | 3.0 | 15.0 | 0.00 | 0.00 | 0.00 | 35 | 1005.3 |
| 20260504023156 | 58 | 13 | 3.0 | 15.0 | 0.00 | 0.00 | 0.00 | 35 | 1005.3 |
| 20260504022656 | 58 | 7 | 3.0 | 15.0 | 0.00 | 0.00 | 0.00 | 35 | 1005.2 |
| 20260504022156 | 59 | 19 | 3.0 | 15.0 | 0.00 | 0.00 | 0.00 | 34 | 1005.1 |
| 20260504021656 | 59 | 354 | 3.0 | 15.0 | 0.00 | 0.00 | 0.00 | 34 | 1005.1 |
| 20260504021156 | 59 | 16 | 2.0 | 15.0 | 0.00 | 0.00 | 0.00 | 34 | 1005.0 |
| 20260504020656 | 60 | 3 | 5.0 | 15.0 | 0.00 | 0.00 | 0.00 | 34 | 1004.9 |
| 20260504020156 | 60 | 26 | 5.0 | 15.0 | 0.00 | 0.00 | 0.00 | 33 | 1004.7 |
| 20260504015655 | 61 | 20 | 5.0 | 15.0 | 0.00 | 0.00 | 0.00 | 33 | 1004.7 |
| 20260504015155 | 62 | 2 | 6.0 | 15.0 | 0.00 | 0.00 | 0.00 | 33 | 1004.5 |
| 20260504014655 | 62 | 3 | 2.0 | 15.0 | 0.00 | 0.00 | 0.00 | 33 | 1004.2 |
| 20260504014155 | 62 | 4 | 2.0 | 15.0 | 0.00 | 0.00 | 0.00 | 33 | 1004.0 |
| 20260504013655 | 63 | 30 | 5.0 | 15.0 | 0.00 | 0.00 | 0.00 | 33 | 1003.9 |
| 20260504013155 | 63 | 357 | 3.0 | 15.0 | 0.00 | 0.00 | 0.00 | 33 | 1003.9 |
| 20260504012655 | 63 | 11 | 3.0 | 15.0 | 0.00 | 0.00 | 0.00 | 32 | 1003.8 |
| 20260504012154 | 64 | 17 | 3.0 | 15.0 | 0.00 | 0.00 | 0.00 | 32 | 1003.7 |
| 20260504011654 | 64 | 12 | 2.0 | 15.0 | 0.00 | 0.00 | 0.00 | 32 | 1003.7 |
| 20260504011154 | 64 | 14 | 3.0 | 15.0 | 0.00 | 0.00 | 0.00 | 32 | 1003.5 |
| 20260504010656 | 65 | 11 | 5.0 | 15.0 | 0.00 | 0.00 | 0.00 | 32 | 1003.4 |
| 20260504010156 | 65 | 22 | 6.0 | 15.0 | 0.00 | 0.00 | 0.00 | 32 | 1003.4 |
| 20260504005655 | 65 | 19 | 3.0 | 15.0 | 0.00 | 0.00 | 0.00 | 33 | 1003.3 |
| 20260504005155 | 65 | 26 | 5.0 | 15.0 | 0.00 | 0.00 | 0.00 | 33 | 1003.2 |
| 20260504004656 | 65 | 19 | 5.0 | 15.0 | 0.00 | 0.00 | 0.00 | 33 | 1003.2 |
| 20260504004155 | 65 | 7 | 5.0 | 15.0 | 0.00 | 0.00 | 0.00 | 32 | 1003.1 |
| 20260504003655 | 65 | 12 | 2.0 | 15.0 | 0.00 | 0.00 | 0.00 | 33 | 1003.0 |
| 20260504003155 | 65 | 26 | 6.0 | 15.0 | 0.00 | 0.00 | 0.00 | 32 | 1003.1 |
| 20260504002654 | 66 | 6 | 5.0 | 15.0 | 0.00 | 0.00 | 0.00 | 32 | 1003.0 |
| 20260504002154 | 66 | 26 | 6.0 | 15.0 | 0.00 | 0.00 | 0.00 | 32 | 1002.9 |
| 20260504001654 | 66 | 345 | 2.0 | 15.0 | 0.00 | 0.00 | 0.00 | 32 | 1002.9 |
| 20260504001154 | 66 | 17 | 6.0 | 15.0 | 0.00 | 0.00 | 0.00 | 31 | 1002.9 |
| 20260504000656 | 66 | 18 | 3.0 | 15.0 | 0.00 | 0.00 | 0.00 | 31 | 1002.8 |
| 20260504000156 | 66 | 358 | 3.0 | 15.0 | 0.00 | 0.00 | 0.00 | 31 | 1002.7 |
| 20260503235655 | 66 | 19 | 5.0 | 15.0 | 0.00 | 0.00 | 0.00 | 31 | 1002.7 |
| 20260503235155 | 66 | 18 | 5.0 | 15.0 | 0.00 | 0.00 | 0.00 | 30 | 1002.6 |
| 20260503234655 | 66 | 358 | 5.0 | 15.0 | 0.00 | 0.00 | 0.00 | 31 | 1002.7 |
| 20260503234137 | 66 | 20 | 3.0 | 15.0 | 0.00 | 0.00 | 0.00 | 31 | 1002.5 |
| 20260503233638 | 67 | 17 | 5.0 | 15.0 | 0.00 | 0.00 | 0.00 | 30 | 1002.7 |
| 20260503233138 | 67 | 21 | 5.0 | 15.0 | 0.00 | 0.00 | 0.00 | 30 | 1002.6 |
| 20260503232638 | 67 | 22 | 3.0 | 15.0 | 0.00 | 0.00 | 0.00 | 30 | 1002.4 |
| 20260503232137 | 67 | 21 | 6.0 | 15.0 | 0.00 | 0.00 | 0.00 | 29 | 1002.4 |
| 20260503231639 | 67 | 16 | 3.0 | 15.0 | 0.00 | 0.00 | 0.00 | 30 | 1002.4 |
| 20260503231138 | 68 | 7 | 5.0 | 15.0 | 0.00 | 0.00 | 0.00 | 29 | 1002.5 |
| 20260503230637 | 69 | 17 | 6.0 | 15.0 | 0.00 | 0.00 | 0.00 | 28 | 1002.4 |
| 20260503230137 | 69 | 22 | 3.0 | 15.0 | 0.00 | 0.00 | 0.00 | 28 | 1002.3 |
| 20260503225637 | 70 | 11 | 5.0 | 15.0 | 0.00 | 0.00 | 0.00 | 27 | 1002.2 |
| 20260503225138 | 71 | 23 | 5.0 | 15.0 | 0.00 | 0.00 | 0.00 | 27 | 1002.2 |
| 20260503224638 | 71 | 349 | 3.0 | 15.0 | 0.00 | 0.00 | 0.00 | 26 | 1002.2 |
| 20260503224138 | 71 | 23 | 3.0 | 15.0 | 0.00 | 0.00 | 0.00 | 24 | 1002.0 |
| 20260503223637 | 71 | 16 | 2.0 | 15.0 | 0.00 | 0.00 | 0.00 | 24 | 1002.0 |
| 20260503223137 | 71 | 18 | 5.0 | 15.0 | 0.00 | 0.00 | 0.00 | 24 | 1002.1 |
| 20260503222637 | 71 | 330 | 2.0 | 15.0 | 0.00 | 0.00 | 0.00 | 24 | 1002.1 |
| 20260503222137 | 72 | 15 | 3.0 | 15.0 | 0.00 | 0.00 | 0.00 | 24 | 1002.0 |
| 20260503221637 | 71 | 13 | 1.0 | 15.0 | 0.00 | 0.00 | 0.00 | 24 | 1001.9 |
| 20260503221137 | 71 | 15 | 3.0 | 15.0 | 0.00 | 0.00 | 0.00 | 24 | 1002.1 |
| 20260503220637 | 71 | 32 | 2.0 | 15.0 | 0.00 | 0.00 | 0.00 | 24 | 1002.2 |
| 20260503220138 | 71 | 4 | 5.0 | 15.0 | 0.00 | 0.00 | 0.00 | 24 | 1002.2 |
| 20260503215638 | 71 | 342 | 1.0 | 15.0 | 0.00 | 0.00 | 0.00 | 24 | 1002.2 |
| 20260503215138 | 71 | 24 | 3.0 | 15.0 | 0.00 | 0.00 | 0.00 | 24 | 1002.3 |
| 20260503214638 | 71 | 345 | 2.0 | 15.0 | 0.00 | 0.00 | 0.00 | 25 | 1002.3 |
| 20260503214138 | 71 | 14 | 5.0 | 15.0 | 0.00 | 0.00 | 0.00 | 25 | 1002.3 |
| 20260503213637 | 71 | 346 | 2.0 | 15.0 | 0.00 | 0.00 | 0.00 | 25 | 1002.3 |
| 20260503213137 | 71 | 10 | 3.0 | 15.0 | 0.00 | 0.00 | 0.00 | 24 | 1002.4 |
| 20260503212637 | 71 | 9 | 5.0 | 15.0 | 0.00 | 0.00 | 0.00 | 24 | 1002.4 |
| 20260503212137 | 71 | 32 | 3.0 | 15.0 | 0.00 | 0.00 | 0.00 | 24 | 1002.4 |
| 20260503211637 | 71 | 21 | 3.0 | 15.0 | 0.00 | 0.00 | 0.00 | 24 | 1002.4 |
| 20260503211137 | 71 | 344 | 1.0 | 15.0 | 0.00 | 0.00 | 0.00 | 24 | 1002.5 |
| 20260503210637 | 71 | 36 | 2.0 | 15.0 | 0.00 | 0.00 | 0.00 | 24 | 1002.5 |
| 20260503210137 | 71 | 26 | 3.0 | 15.0 | 0.00 | 0.00 | 0.00 | 24 | 1002.7 |
| 20260503205636 | 72 | 7 | 2.0 | 15.0 | 0.00 | 0.00 | 0.00 | 24 | 1002.7 |
| 20260503205138 | 72 | 17 | 2.0 | 15.0 | 0.00 | 0.00 | 0.00 | 23 | 1002.7 |
| 20260503204638 | 73 | 348 | 3.0 | 15.0 | 0.00 | 0.00 | 0.00 | 22 | 1002.8 |
| 20260503204138 | 73 | 106 | 0.0 | 9.0 | 0.00 | 0.00 | 0.00 | 22 | 1002.8 |
| 20260503203638 | 73 | 50 | 2.0 | 9.0 | 0.00 | 0.00 | 0.00 | 21 | 1002.9 |
| 20260503203137 | 73 | 192 | 0.0 | 9.0 | 0.00 | 0.00 | 0.00 | 21 | 1003.1 |
| 20260503202636 | 73 | 205 | 0.0 | 9.0 | 0.00 | 0.00 | 0.00 | 21 | 1003.0 |
| 20260503202137 | 74 | 16 | 0.0 | 9.0 | 0.00 | 0.00 | 0.00 | 21 | 1003.0 |
| 20260503201638 | 74 | 37 | 0.0 | 9.0 | 0.00 | 0.00 | 0.00 | 20 | 1003.1 |
| 20260503201138 | 74 | 49 | 1.0 | 9.0 | 0.00 | 0.00 | 0.00 | 21 | 1003.2 |
| 20260503200638 | 74 | 81 | 1.0 | 9.0 | 0.00 | 0.00 | 0.00 | 21 | 1003.3 |
| 20260503200138 | 73 | 28 | 0.0 | 9.0 | 0.00 | 0.00 | 0.00 | 21 | 1003.4 |
| 20260503195637 | 73 | 8 | 0.0 | 9.0 | 0.00 | 0.00 | 0.00 | 21 | 1003.5 |
| 20260503195137 | 73 | 5 | 0.0 | 9.0 | 0.00 | 0.00 | 0.00 | 23 | 1003.6 |
| 20260503194637 | 72 | 5 | 0.0 | 9.0 | 0.00 | 0.00 | 0.00 | 23 | 1003.7 |
| 20260503194137 | 72 | 5 | 0.0 | 9.0 | 0.00 | 0.00 | 0.00 | 22 | 1003.7 |
| 20260503193637 | 72 | 355 | 1.0 | 9.0 | 0.00 | 0.00 | 0.00 | 21 | 1003.8 |
| 20260503193137 | 72 | 71 | 0.0 | 9.0 | 0.00 | 0.00 | 0.00 | 22 | 1003.9 |
| 20260503192636 | 72 | 22 | 1.0 | 9.0 | 0.00 | 0.00 | 0.00 | 23 | 1003.9 |
| 20260503192136 | 72 | 24 | 1.0 | 9.0 | 0.00 | 0.00 | 0.00 | 22 | 1004.0 |
| 20260503191636 | 72 | 315 | 0.0 | 9.0 | 0.00 | 0.00 | 0.00 | 23 | 1004.1 |
| 20260503191136 | 72 | 2 | 0.0 | 9.0 | 0.00 | 0.00 | 0.00 | 22 | 1004.1 |
| 20260503190637 | 71 | 5 | 2.0 | 9.0 | 0.00 | 0.00 | 0.00 | 22 | 1004.4 |
| 20260503190137 | 71 | 13 | 0.0 | 9.0 | 0.00 | 0.00 | 0.00 | 23 | 1004.4 |
| 20260503185637 | 71 | 96 | 0.0 | 9.0 | 0.00 | 0.00 | 0.00 | 23 | 1004.5 |